Location: Newark
(48.1500°N, 13.1167°E)
Time: 15:07:54
(UTC+00:00)

ISS - Pass Details

Date: 26 September 2021
Orbit: 417 x 423 km, 51.6° (Epoch: 28 October)

Event Time Altitude Azimuth Distance (km) Brightness Sun altitude
Rises 17:19:56 0° 269° (W) 2,361 3.0 -4.7°
Reaches altitude 10° 17:22:04 10° 275° (W) 1,499 1.0 -5.0°
Maximum altitude 17:25:20 48° 351° (N) 558 -3.0 -5.6°
Drops below altitude 10° 17:28:38 10° 68° (ENE) 1,504 -1.5 -6.1°
Enters shadow 17:29:21 - 71° (ENE) 1,792 -1.1 -6.2°
